Torna al catalogo

COSMOS 1317 DEB

LostHEO
NORAD 35513·DEBRIS·🇷🇺 Russia

Lanciato Oct 31, 1981 da Plesetsk Cosmodrome

Loading…

Prossimi Passaggi (prossime 24 ore)

TLE

ObsoletoSource: Space-Track

Epoca: Jun 12, 2012, 16:13 UTC

1 35513U 81108N   12164.67622593 -.00000471  00000-0  00000+0 0  9991
2 35513  70.8080 276.8268 5177875 116.6326  10.2780  2.02000952 42437

Traccia COSMOS 1317 DEB in tempo reale con AllMySat

Download on the App Store